STARLINK-36346

Last updated on Sun Mar 15 2026 00:02:07 GMT+0000 (Coordinated Universal Time)

1 67818U 26032X 26073.47080647 .00497346 00000+0 31184-2 0 9998 2 67818 97.2836 260.3077 0001831 121.4599 238.6846 15.75386678 5543
UTC large
Height (km)
Speed (km/s)
/
Latitude / Longitude
Inclination (degrees)
Orbital Period (minutes)
Azimuth
Elevation
Range (km)
Doppler Factor

Next 0 passes for location: London (51.5072 / 0.1276)

Sorry there are no passes over London.